GFSMA_con_sbcape_009.txt.gz
CAPE
1488 1243 1458 963 1437 1417 1049 1443 1473 1215 1403 1488 1238 1162 782 445 316 1277 1008 2179 2236 2338 2443 2082 1828 1831 1422 1261 1191 975 1219 884 652 579 580 791 1176 1288 1180 998 1074 1242 1413
1697 1597 1207 1278 1603 1193 1583 1312 1301 1269 1165 1283 1395 1215 1082 747 367 629 1027 1452 2091 2323 2606 2249 2204 2211 1993 1423 1558 1712 1748 1365 1223 953 1346 1490 1709 1528 1478 1200 1199 1430 1601
1555 1479 1135 1308 1158 1192 1535 1570 1642 1592 1433 1361 1130 1091 1058 851 692 539 836 1202 1572 2409 2085 2266 2781 2652 2748 2128 1703 2009 2038 2254 2045 1919 1682 1654 1543 1559 1720 1547 1470 1591 1634
1279 1550 1268 1196 1237 1277 1188 1058 1089 1036 905 887 912 906 970 839 960 735 923 1081 995 938 1779 1894 2036 2456 2848 2455 2493 2253 2269 2331 2238 1987 2106 2051 1920 1688 1439 1406 1460 1560 1670
1802 1482 1546 1644 1659 1379 1128 1099 1233 858 804 779 761 645 639 880 923 1050 746 796 803 1172 967 1776 2066 1924 2242 2591 2721 2493 2142 2472 2289 2256 1966 2137 2169 2023 1822 1746 1658 1653 1720
1621 1339 1278 1162 1163 1177 1086 1048 889 818 920 870 1172 821 609 596 644 650 632 643 706 798 1274 1137 1367 1179 1869 2431 2787 2784 2580 2086 2492 2456 2241 2033 2128 2031 1908 1821 1787 1800 1761
1656 1568 1307 1455 1317 1129 1074 1077 1000 988 627 652 399 176 294 421 606 616 705 684 421 568 644 823 1105 1093 988 1982 1880 2157 2814 2692 2351 2364 2338 2100 1957 1847 1694 1557 1477 1516 1693
1607 1716 1472 802 585 692 389 193 352 300 473 527 430 110 78 68 269 432 431 528 475 402 221 622 968 1219 949 1127 1203 2082 2456 2613 2756 2526 2391 2038 1895 1736 1503 1249 1146 1236 1395
494 425 420 431 604 498 331 357 331 312 314 326 272 202 67 44 62 18 137 280 610 290 285 315 361 942 947 1000 1398 1716 1951 1973 2294 2849 2715 2325 2064 1754 1530 1323 1132 1079 1120
210 199 250 502 331 346 353 297 376 241 269 198 182 193 12 42 56 62 84 127 156 273 491 605 339 146 98 157 1322 1635 1968 1769 1821 2098 2433 2616 2305 1968 1698 1529 1360 1194 1117
204 382 491 216 233 160 152 250 77 164 130 136 98 94 149 131 40 57 36 26 9 107 265 336 234 80 16 61 14 698 1426 1552 1682 1834 1854 2272 2702 2527 2304 2005 1862 1712 1515
63 440 184 73 191 213 198 64 145 92 19 6 28 4 20 60 65 50 8 3 22 32 57 231 168 6 2 7 244 354 219 7 773 1411 1509 1694 2078 2684 2938 2835 2640 2310 1976
107 108 51 217 0 24 35 95 39 11 28 0 0 0 8 7 24 59 57 2 5 0 0 65 222 243 259 98 0 0 0 10 8 417 1060 1224 1470 1808 2350 2689 2751 2692 2499
1 60 2 106 93 146 178 125 28 7 24 12 10 29 19 3 2 7 1 5 1 0 0 0 0 112 253 120 48 94 40 41 49 25 278 631 819 1050 1259 1553 1800 1913 2069
0 26 27 44 136 243 273 71 43 66 6 0 0 28 0 0 0 0 0 0 25 3 0 0 0 0 8 223 316 288 171 62 69 16 41 114 219 527 718 948 1114 1225 1363
79 51 136 155 155 76 143 209 11 0 0 0 24 23 35 0 0 0 0 0 0 10 14 2 0 1 0 10 281 358 150 98 41 35 2 31 19 90 199 335 506 627 728
303 256 229 154 108 160 212 232 80 85 64 46 76 68 52 0 0 0 0 0 0 0 4 1 0 0 5 14 20 335 221 126 61 153 99 13 0 2 22 45 89 163 276
105 161 130 193 175 105 115 109 6 81 91 70 99 89 139 32 0 0 0 0 0 0 4 1 0 0 2 0 6 92 90 155 345 436 149 118 0 0 0 0 0 0 2
38 3 106 105 88 102 104 128 169 126 112 81 154 161 130 48 0 0 0 0 0 0 0 2 1 0 1 0 0 32 106 46 118 300 69 198 228 0 0 0 0 0 0
125 248 340 225 169 251 252 343 306 112 117 103 221 276 132 97 34 0 0 0 0 0 0 0 0 4 7 3 2 8 47 110 152 242 17 1 0 0 0 0 0 0 0
335 268 322 316 261 453 508 66 139 271 271 193 305 220 237 137 391 35 0 0 0 0 0 0 0 3 3 2 5 5 13 76 112 196 107 7 1 58 7 0 0 0 0
334 511 267 193 286 414 260 14 23 48 166 181 172 160 189 298 97 216 236 260 103 18 0 0 0 6 2 4 13 2 12 30 36 118 231 85 192 99 29 0 0 0 0
531 179 403 423 256 400 625 284 142 32 51 113 183 144 114 229 214 67 22 85 135 153 125 54 12 14 26 11 21 11 12 21 20 26 187 74 98 96 113 303 24 0 0
304 414 511 299 465 457 366 139 13 12 59 160 204 197 218 155 88 35 0 0 0 6 12 23 34 21 11 11 17 19 16 12 21 15 128 75 97 102 284 541 320 3 0
563 642 579 346 406 201 6 3 0 0 4 2 11 59 114 53 0 0 0 0 0 0 2 12 4 0 1 4 8 12 23 29 12 5 23 40 36 93 185 366 391 43 0
513 425 21 350 204 0 0 0 0 0 0 0 42 24 2 0 0 0 0 0 2 0 0 0 1 0 3 5 3 0 2 28 5 2 0 55 57 134 140 120 286 58 0

GFSMA_con_sbcape_015.txt.gz
CAPE
1083 748 733 799 733 890 607 937 808 774 780 797 853 932 949 779 579 344 775 1482 2105 1910 2417 1985 1957 1563 1079 989 896 1364 1009 623 664 896 769 441 519 618 422 423 575 652 980
1326 794 666 708 657 746 891 955 827 975 966 837 846 769 730 726 931 658 605 783 2298 1697 2122 2468 2189 1980 1435 1134 1130 871 1257 1254 1024 677 939 1177 1322 1211 576 681 699 926 1482
1212 1072 875 502 567 546 739 862 604 592 637 574 581 527 532 538 527 686 593 824 769 1596 1710 1717 1691 1818 2302 1456 1287 1349 1496 1553 1920 1587 1333 1345 1358 1421 1498 1521 1568 1663 1701
933 868 634 519 550 564 748 576 608 688 628 472 358 361 366 352 485 591 605 370 689 965 1022 1702 1574 1678 1891 2072 2192 2163 2027 1944 1832 1899 1736 1622 1622 1714 1830 1820 1572 1690 1732
1075 1090 544 549 643 508 500 558 721 538 439 329 428 483 358 255 243 312 232 389 377 845 836 1168 1403 1422 1402 1240 1823 2652 2606 2183 2144 2186 2134 1908 1784 1801 1743 1628 1707 1817 1764
1121 691 608 670 525 430 296 221 254 237 363 418 283 164 27 23 10 61 86 205 349 458 564 707 753 799 1754 1793 1621 1937 2758 2492 2425 2232 2144 2173 2092 1992 1902 1807 1680 1534 1426
939 803 445 453 418 186 26 22 63 180 140 133 38 0 0 0 0 0 0 43 54 214 272 365 615 649 616 1500 1558 1183 1548 2394 2695 2566 2253 1958 2016 1978 1830 1723 1652 1710 1607
872 519 440 341 147 6 0 2 0 0 22 67 107 1 0 0 0 0 0 0 0 8 84 296 326 471 615 556 681 1327 1419 1391 1682 2226 2522 2103 2138 1991 1802 1579 1573 1653 1608
992 894 201 6 0 0 0 0 0 0 0 3 12 21 0 0 0 0 0 0 0 0 0 21 427 376 260 203 359 340 571 693 1093 1507 1886 1981 1691 1974 1952 1767 1576 1506 1411
0 0 0 0 0 0 0 0 0 0 0 0 0 33 9 8 0 0 0 0 0 0 0 0 0 46 310 152 172 371 603 528 359 321 1548 1704 1721 1965 2170 2004 1757 1521 1347
0 0 0 0 0 0 0 0 0 0 0 0 0 0 0 0 0 0 0 0 0 0 0 0 0 0 0 17 9 6 61 171 247 303 752 1717 1728 1843 2081 2164 2108 1846 1645
0 0 0 0 0 0 0 0 0 0 0 0 0 0 0 0 0 0 1 0 0 0 0 0 0 0 0 0 0 0 6 214 275 258 474 626 812 1754 2086 2191 2278 2201 2200
0 0 0 0 0 0 0 0 0 0 0 0 0 0 0 0 0 0 0 0 0 0 0 0 0 0 0 0 0 0 0 0 5 87 75 175 197 292 810 1581 1921 2178 2201
0 0 0 0 0 0 0 0 0 0 0 0 0 0 0 0 0 0 0 0 0 0 0 0 0 0 0 0 0 0 0 0 0 1 15 34 1 4 36 117 739 1376 1691
0 0 0 0 0 0 0 0 0 0 0 0 0 0 0 0 0 0 0 0 0 0 0 0 0 0 0 0 0 0 0 0 0 0 5 0 0 0 0 0 25 306 759
0 0 0 0 0 0 0 0 0 0 0 0 0 0 0 0 0 0 0 0 0 0 0 0 0 0 0 0 0 0 0 0 0 0 0 0 0 0 0 0 0 7 132
0 0 0 0 0 0 0 0 0 0 0 0 0 0 0 0 0 0 0 0 0 0 0 0 0 0 0 0 0 0 0 0 0 0 0 0 0 0 0 0 0 0 0
0 0 0 0 0 0 0 0 0 0 0 0 0 0 0 0 0 0 0 0 0 0 0 0 0 0 0 0 0 0 0 0 0 0 0 0 0 0 0 0 0 0 0
0 0 0 0 0 0 0 0 0 0 0 0 0 0 0 0 0 0 0 0 0 0 0 0 0 0 0 0 0 0 0 0 0 0 0 0 0 0 0 0 0 0 0
0 0 0 0 0 0 0 0 0 0 0 0 0 0 0 0 0 0 0 0 0 0 0 0 1 0 0 0 0 0 0 0 0 0 0 0 0 0 0 0 0 0 0
0 12 0 0 0 0 0 0 0 0 0 0 0 10 2 9 82 25 0 0 0 0 0 0 0 0 0 0 0 0 0 0 1 0 0 0 0 0 2 0 0 0 0
0 0 0 0 0 0 0 5 3 0 0 0 0 0 0 7 16 54 185 252 15 0 0 0 0 0 0 0 0 0 0 8 11 2 1 0 6 14 15 9 5 0 0
1 32 5 7 14 0 0 0 1 0 0 0 0 0 0 0 6 4 9 17 32 47 57 7 0 0 0 0 0 0 0 6 9 8 14 13 0 1 0 27 0 0 0
30 52 21 20 4 0 0 10 26 5 0 0 0 0 0 0 0 0 0 0 0 0 0 0 0 0 0 0 0 0 5 7 7 8 10 25 1 1 0 8 7 0 0
122 110 34 13 7 0 0 3 0 0 0 0 0 0 0 0 0 0 0 0 0 0 0 1 2 0 0 0 0 8 7 10 9 10 11 8 2 2 9 5 30 0 0
123 36 13 4 6 7 28 5 0 0 0 0 0 0 0 0 0 0 0 0 0 0 0 0 0 0 0 0 0 4 4 11 12 10 10 0 1 5 15 8 10 51 0

GFSMA_con_sbcape_021.txt.gz
CAPE
1669 1705 2118 2085 1985 1967 1809 2423 2134 2074 1968 1842 1861 1760 1596 1644 1737 1567 1592 1224 1953 2327 1809 1498 1512 1725 1290 931 779 1405 1185 1078 634 1038 647 638 612 303 674 795 693 570 646
1724 1795 2106 2173 2556 1834 1876 2132 2126 2259 1941 1803 1694 1666 1574 1382 1277 1395 1389 1579 1341 1984 2224 1811 2007 1725 1485 1475 906 722 930 1535 1181 788 976 1596 1289 919 595 653 669 582 788
1982 2000 2609 2338 1970 1845 2004 1904 2133 1738 1869 1645 1553 1129 947 788 660 837 962 1174 1419 1379 1705 2036 2006 2276 1622 1369 1539 1508 1806 1754 1801 1695 1485 1514 1720 1495 1448 1390 1153 1214 1462
2412 2471 2269 2680 1802 1802 1641 1890 1725 1505 1384 1135 1099 920 784 675 576 619 673 800 743 1058 1421 1632 2051 2275 1972 1209 1744 1609 1723 1871 1916 2083 1830 1761 1717 1573 1499 1636 1721 1652 1532
2343 2449 2650 2767 1672 1797 2149 1517 1342 1292 867 751 488 400 508 539 564 436 749 1015 895 902 1109 1435 1582 1823 1599 1420 2101 1940 1856 1902 1842 1944 1823 2020 2048 1811 1715 1714 1753 1824 1668
2326 2520 2461 2116 1876 1792 1315 858 807 586 610 564 320 236 387 482 404 532 921 394 911 896 1343 1649 1705 1559 1295 1452 1964 1699 2002 2078 2032 2176 2138 1898 1926 2083 1877 1773 1760 1852 1882
2142 2211 1855 1774 1738 1329 844 764 464 441 278 561 347 61 143 296 311 426 518 84 93 122 512 1003 1516 1551 1537 1203 1131 1403 1575 1668 1640 1739 2154 1713 1948 2008 1981 1814 1717 1755 1779
2495 2052 2099 1705 1479 937 924 579 472 71 230 565 173 161 6 196 297 341 192 6 0 25 10 20 260 769 1156 1307 991 650 642 996 1384 1714 1922 1602 1528 1559 1849 1907 1732 1715 1747
2359 2224 1720 1481 1421 895 296 416 287 360 20 173 281 196 2 0 53 145 301 2 0 0 0 0 0 0 0 0 17 90 67 171 341 568 675 769 1710 1778 1673 1667 1786 1751 1701
2106 1920 1585 1484 1208 469 377 338 185 162 152 4 173 235 212 169 2 0 0 0 0 0 0 0 0 0 0 0 0 0 0 0 0 18 151 468 537 895 1643 1842 1634 1730 1695
1871 1858 1543 1031 700 268 519 264 177 213 107 87 93 123 175 21 10 0 0 0 0 0 0 0 0 0 0 0 0 0 0 0 0 0 0 0 80 451 580 716 1756 1935 2008
385 659 568 583 597 445 238 149 127 150 144 198 97 74 0 0 0 0 2 0 0 0 0 0 0 0 0 0 0 0 0 0 0 0 0 0 0 26 220 588 756 1703 2005
138 292 566 645 532 345 221 141 181 72 106 88 246 0 0 3 13 0 1 2 0 0 0 0 0 0 0 0 0 0 0 0 0 0 0 0 0 0 3 82 273 707 958
126 386 568 598 422 203 137 100 85 118 107 136 229 170 65 61 44 30 22 9 0 0 0 0 0 0 0 0 0 0 0 0 0 0 0 0 0 0 0 0 9 75 282
151 316 421 463 207 63 110 225 94 264 222 270 204 275 196 80 73 68 64 43 23 4 0 0 0 0 0 0 0 0 0 0 0 0 0 0 0 0 0 0 0 2 19
181 350 391 275 183 172 202 293 145 90 195 206 165 241 276 104 119 129 72 92 63 23 2 0 2 0 0 0 0 0 0 0 0 0 0 0 0 0 0 0 0 0 2
94 302 257 198 283 288 249 290 253 174 235 300 296 308 382 349 181 165 169 155 116 82 47 0 6 6 3 5 23 46 1 0 0 0 0 0 0 0 0 0 0 0 0
13 59 193 269 317 327 267 332 299 102 258 291 205 365 379 242 455 696 463 393 200 188 120 63 50 53 63 66 124 146 106 0 0 0 0 0 0 0 0 0 0 0 0
32 33 90 273 260 328 353 393 309 310 288 209 292 391 418 419 448 606 537 205 137 177 147 85 58 44 70 53 32 102 102 63 7 0 0 0 0 0 0 0 0 0 0
0 15 16 65 238 427 373 308 277 362 387 361 384 490 552 277 299 436 413 355 330 276 220 74 70 56 59 88 52 40 54 41 34 12 0 0 0 0 0 0 0 0 0
1 16 5 36 131 240 223 274 319 522 756 652 555 605 418 262 120 56 118 142 214 171 122 127 106 73 58 47 64 66 49 57 100 30 9 3 1 1 0 0 3 0 0
0 64 9 27 177 182 26 0 217 724 891 746 670 631 500 70 49 0 14 25 56 172 234 272 144 124 133 197 83 73 45 14 13 14 34 5 8 3 4 8 5 2 0
21 46 55 114 303 360 52 14 9 619 954 860 790 721 476 122 14 45 8 0 6 0 34 119 77 87 119 131 101 26 26 36 37 30 27 4 14 29 9 19 7 3 0
18 118 196 352 365 584 136 36 22 450 736 801 785 742 407 205 44 6 24 31 48 40 60 8 11 12 7 3 11 27 26 26 32 22 90 54 50 7 11 25 23 14 3
190 182 275 430 516 850 6 0 0 76 92 154 428 182 45 21 0 0 0 4 13 2 1 0 0 0 0 0 1 13 6 46 27 19 9 44 3 10 15 13 19 14 1
327 297 283 361 323 639 29 1 1 1 20 11 1 3 0 0 0 0 0 1 3 2 2 0 0 4 4 5 1 11 6 52 48 17 1 6 7 13 16 15 16 25 30

GFSMA_con_sbcape_024.txt.gz
CAPE
1758 1918 1908 1467 1527 1548 1788 1766 1814 1897 2074 1855 1880 1929 1861 1818 1860 1673 1497 1783 1967 2283 1862 1901 1905 1800 1623 1238 1220 1768 1221 908 485 685 757 1159 982 642 699 611 801 836 704
1855 2134 1587 1704 1521 1588 1906 1902 1849 1951 1983 1912 1790 1617 1797 1653 1520 1641 1562 1824 1685 1889 2483 2174 2139 1894 1828 1714 1220 963 1540 1586 1400 885 1409 1388 1364 1029 590 724 920 801 720
1891 2345 1588 1416 1365 2079 2169 1783 1820 1817 1621 1401 1342 1261 1282 1013 726 723 688 773 1492 1819 1975 2313 2473 2004 2352 1671 1722 1841 1549 1761 2055 1985 1701 1666 1611 1624 1549 1394 1341 1377 1319
2458 2283 2777 1313 1337 2020 1882 1689 1737 739 391 302 286 392 413 289 132 204 237 349 126 420 1757 2251 2030 1836 1650 1461 1646 1947 1799 1984 2044 2391 2080 1937 1888 2027 1941 1826 1772 1740 1674
1749 1887 1595 1651 2094 1860 1681 1453 646 611 160 30 0 0 8 133 158 214 484 634 479 465 357 2050 1726 1545 1631 1631 1733 2420 2312 2063 1837 2227 2450 2356 2026 1986 1877 1739 1647 1800 1899
1870 1938 1525 1678 1641 2106 1747 894 1049 276 17 34 19 0 79 159 273 459 621 404 899 850 930 1201 1204 1368 1590 1428 1894 1880 1777 1919 1979 1829 2054 2097 2051 2145 2037 1875 1779 1853 1908
1884 2095 1595 1573 1515 1785 1181 1074 384 0 0 57 46 2 8 136 190 362 520 258 324 478 778 1032 1303 1002 1527 1319 1193 1422 1478 1715 2247 2190 2032 1897 1871 1902 2030 2021 1859 1892 1902
2323 1871 1990 1757 1742 789 1353 810 90 0 0 92 13 1 5 194 182 245 174 14 33 75 147 356 1013 1333 1380 1769 1245 536 413 744 1116 1337 1770 1826 1785 1644 1789 1788 1812 1794 1823
2405 2318 1981 1847 1965 1398 266 155 39 60 0 0 162 36 10 11 3 211 301 3 0 0 0 19 17 0 0 65 181 119 0 26 183 402 551 607 676 760 1713 1697 1691 1802 1722
2199 2247 2302 2087 2134 638 107 23 19 49 87 0 8 51 161 302 44 41 26 5 0 0 0 0 0 0 0 0 0 0 0 0 0 0 0 24 133 434 690 1286 1421 1589 1699
2411 1867 2332 1993 1571 166 229 252 99 50 0 28 18 8 40 16 16 4 5 17 4 0 0 0 0 0 0 0 0 0 0 0 0 0 0 0 0 10 132 584 852 1264 1671
1700 2250 2126 1843 870 105 558 275 96 55 133 126 57 50 14 6 14 15 14 23 18 5 0 0 0 0 0 0 0 0 0 0 0 0 0 0 0 0 0 48 255 718 904
524 1347 1521 1115 785 919 671 217 198 78 89 72 124 24 24 27 27 30 11 3 12 8 2 0 0 0 0 0 0 0 0 0 0 0 0 0 0 0 0 0 6 72 417
342 884 935 904 883 828 628 331 93 144 81 90 83 198 25 15 24 28 38 32 14 5 14 12 3 0 0 0 0 0 0 0 0 0 0 0 0 0 0 0 0 0 1
374 602 857 827 873 822 450 331 180 218 162 108 60 198 216 16 28 33 41 40 39 34 33 43 22 8 1 4 7 0 0 0 0 0 0 0 0 0 0 0 0 0 0
626 492 715 702 686 611 352 588 192 156 228 47 69 107 296 51 39 54 66 54 55 55 33 35 16 25 28 4 25 5 23 1 0 0 0 0 0 0 0 0 0 0 0
809 936 1018 637 726 443 525 688 440 81 190 289 268 247 312 457 207 97 103 123 102 61 15 2 8 24 43 86 59 59 55 72 15 0 0 0 0 0 0 0 0 0 0
485 693 601 734 692 658 661 569 441 97 238 307 252 320 365 249 393 559 131 273 152 192 109 275 236 23 351 103 98 180 138 33 17 6 0 0 0 0 0 0 0 0 0
331 122 430 487 470 602 906 800 528 329 323 293 313 396 386 365 446 344 255 123 108 204 169 148 71 12 29 70 160 163 148 315 30 32 1 0 0 0 0 0 0 0 0
357 327 89 480 717 754 592 429 552 516 430 417 539 604 558 477 455 379 337 282 283 225 294 146 112 116 99 136 269 98 87 61 39 67 66 5 1 0 0 0 0 0 0
406 186 129 239 479 392 225 526 522 527 601 745 735 674 709 615 495 212 192 255 478 198 125 104 78 110 128 339 428 148 49 58 197 266 73 13 8 13 7 2 0 0 0
714 414 245 270 410 201 0 24 424 496 597 893 881 815 782 613 198 39 16 4 23 87 128 99 43 295 302 231 126 106 66 58 68 79 171 56 101 93 41 28 4 0 0
248 561 413 391 386 390 21 9 23 397 553 1150 1089 1199 889 586 222 398 117 0 0 0 0 83 140 182 144 159 201 224 72 50 30 18 259 116 141 74 49 56 14 0 0
537 504 539 591 689 469 255 3 0 365 813 1124 220 167 203 236 876 342 209 186 152 135 172 142 172 135 102 65 31 11 25 24 25 18 312 184 161 78 93 49 1 0 0
617 758 641 689 1112 961 24 0 0 440 575 114 97 94 101 103 51 0 75 88 111 122 18 0 0 0 0 0 0 13 8 23 56 60 121 92 62 97 93 15 9 3 0
685 597 851 1218 672 1043 0 0 12 641 330 153 93 47 0 0 0 0 8 60 83 72 67 17 10 7 3 27 6 20 14 104 136 60 35 92 61 38 4 8 14 23 17

GFSMA_con_sbcape_030.txt.gz
CAPE
1909 2288 2004 2733 2758 2280 2382 1322 1061 2837 1905 2257 2027 2069 1687 1819 1686 1486 1709 877 2626 2673 2479 2314 2399 2100 1539 1446 1783 1632 1198 645 696 1397 1254 1343 1420 1355 1228 1037 818 1036 1104
1633 1927 3186 2777 1337 1752 1855 2594 2801 2787 3004 2525 2331 2172 1810 2192 1676 1411 2035 2193 2615 2676 2964 2792 2496 2504 2202 1894 1373 1967 1661 1455 1289 949 1249 1309 1492 1394 1437 1191 1117 1052 1433
3493 3166 2937 3149 2005 1920 2926 1897 2193 1916 2363 2272 1434 2379 1761 1952 1421 668 447 403 2090 2921 2903 2858 2618 2833 2463 2068 1916 1766 2392 2139 2020 1812 1339 1608 1748 1879 1793 1543 1220 1468 1582
3003 3607 3362 2881 3012 3249 1530 1724 2320 1706 1305 618 212 649 512 265 273 163 247 573 618 863 2334 2528 2980 2614 2448 1619 1827 1825 2162 2205 2384 2197 1640 1874 2062 2019 1892 1776 1739 1752 1695
3395 2917 2713 2316 2430 2169 2300 1732 1967 1301 702 197 22 101 442 147 344 86 420 539 650 605 1267 2457 2633 2650 2056 1603 1932 2123 2070 2234 1843 1918 2352 2194 1845 1944 2014 1969 1920 1924 1878
2521 2395 2788 2592 2373 2519 2218 1732 1053 1218 439 589 19 13 71 177 625 814 186 433 698 594 1084 1476 1557 1560 1534 1444 1941 2419 1916 2017 2243 2052 1964 1997 2000 2015 2171 2109 2009 1923 1991
2761 2678 3406 2352 1950 2434 2115 1584 1427 578 491 1103 417 449 858 346 347 433 76 312 420 484 898 1656 1443 1476 1652 1503 1563 1784 1581 1434 1255 1623 1830 1993 1938 1905 2025 2052 2005 2059 2012
2838 3312 3379 2272 1986 1489 1864 1876 1090 646 133 1018 349 192 164 559 28 100 387 21 11 144 808 783 861 984 1606 1714 821 629 638 792 984 1275 1296 1227 1382 1543 1680 1910 1803 1903 1949
3091 3065 2566 2768 2263 2181 2112 1714 1027 481 350 937 234 419 496 220 378 658 734 22 18 22 155 127 2 23 442 1011 282 0 0 0 32 83 183 332 541 771 865 1028 1225 1529 1622
2649 2970 3293 2909 2203 2454 1871 1454 1106 564 490 197 791 529 303 131 527 157 352 120 4 0 0 3 0 0 0 0 0 0 0 0 0 0 0 0 0 13 157 376 835 1320 1520
2138 2905 2583 2789 3090 2015 1567 927 1086 675 663 479 705 570 693 447 506 54 126 49 114 26 6 0 0 0 0 0 0 0 0 0 0 0 0 0 0 0 0 0 0 357 1134
2194 2855 2316 2961 2791 2010 1602 673 779 511 450 672 484 635 321 370 133 470 171 50 38 110 56 20 0 2 0 0 0 0 0 0 0 0 0 0 0 0 0 0 0 0 0
1481 2208 2975 2795 2340 1988 1789 1435 848 1094 735 603 1189 423 270 362 352 194 74 31 69 69 89 59 45 28 13 0 0 0 0 0 0 0 0 0 0 0 0 0 0 0 0
1447 2010 2354 2619 2165 1718 1706 1221 797 500 727 668 424 764 324 238 257 552 322 97 1 14 64 191 185 80 69 38 0 0 0 0 0 0 0 0 0 0 0 0 0 0 0
2848 2021 2071 2398 1999 1693 1332 1370 791 661 856 1176 818 938 822 447 421 384 397 70 278 33 19 63 70 123 213 22 122 3 23 42 18 0 0 0 0 0 0 0 0 0 0
2635 2293 2087 2052 1829 1710 1549 1620 854 1239 1125 1094 795 875 903 418 557 529 95 295 134 100 36 49 24 114 602 279 117 67 63 35 35 3 0 0 0 0 0 0 0 0 0
2815 2164 1950 1759 1807 1705 1546 1336 1136 1113 1039 956 568 706 459 760 444 407 663 498 447 235 118 65 150 175 451 526 398 482 360 73 55 40 18 6 0 0 0 0 0 0 0
2902 2061 1928 1854 1619 1485 1407 1323 837 489 974 1050 957 1025 820 626 1011 1119 733 790 592 528 220 196 216 334 223 590 869 579 482 44 58 45 28 9 5 1 0 0 0 0 0
3179 2167 1972 1761 1657 1332 1298 1119 1036 854 909 398 932 930 830 892 1056 629 757 776 586 406 334 199 250 265 124 224 190 342 256 302 120 64 27 4 4 0 0 0 0 0 0
3402 2329 1970 1741 1483 1218 1265 1099 1182 1121 827 736 852 852 922 1028 1069 957 800 406 409 384 223 125 103 98 208 253 168 99 49 69 39 48 32 20 1 0 0 0 0 0 0
3472 2578 1936 1714 1356 771 1071 997 1128 991 884 792 777 873 908 1073 712 363 647 805 208 156 66 55 3 2 10 12 0 2 35 35 23 69 1 0 0 0 0 0 0 0 0
3244 2560 1799 1417 1146 649 456 267 906 866 973 891 866 1211 1180 667 86 12 21 24 71 52 49 44 36 6 1 81 91 51 45 0 0 0 1 0 0 0 0 0 0 0 4
3079 2238 1695 1260 863 803 153 53 475 752 801 856 1086 1240 1303 851 609 301 30 36 40 20 15 46 10 6 55 124 144 99 64 15 3 0 0 0 0 0 0 0 6 11 5
2682 1916 1519 1097 858 1143 272 0 53 291 527 1123 853 1301 1285 1351 776 509 210 180 202 244 102 22 13 19 69 117 158 39 1 0 0 0 8 12 0 1 14 37 21 15 3
2239 1766 1324 1169 1199 1335 280 0 0 102 119 462 789 1191 1268 1442 1041 39 196 219 217 94 64 43 39 46 14 0 0 4 0 0 0 0 4 20 24 37 6 1 0 0 0
2336 1481 1116 1170 1112 1217 209 3 0 151 129 552 1075 998 564 1027 497 9 55 192 121 129 320 289 217 82 19 4 0 9 21 26 37 38 26 61 0 0 0 0 0 0 0

GFSMA_con_sbcape_033.txt.gz
CAPE
734 1510 1263 1585 979 1645 1110 307 615 1083 1484 1456 1095 1297 916 526 415 836 591 2216 2457 2272 2368 2438 2275 1542 1641 1663 1423 1104 696 842 1196 1363 1347 1114 732 755 1084 957 830 886 975
995 1427 1619 1787 1118 918 1252 1276 1305 1335 1722 1251 1447 1439 1024 1054 745 1204 997 1494 2196 2218 2310 2401 2616 2480 1851 1727 1618 1904 1554 938 805 851 1348 1565 1558 1492 1239 1040 809 694 1199
1148 1292 1281 1329 1618 1397 1396 1020 1127 1223 1214 945 85 1352 1145 733 854 1335 1450 1288 1693 2493 2263 2913 2743 2795 2811 2254 1881 2075 2347 2309 1825 1387 1392 1364 1377 1579 1295 1721 1353 1438 1622
1589 1260 1514 1412 1781 1230 585 848 1015 411 199 0 0 0 67 0 0 7 1 11 920 1445 2279 2297 2103 2473 2320 2247 1879 2303 2172 2348 2271 2001 1812 1494 1652 2014 2004 2023 1958 1610 1673
1899 1890 1716 1487 1633 1386 1290 1014 818 325 0 0 0 0 0 0 0 13 25 27 235 885 1118 1806 1594 2014 1714 1686 1605 1863 1681 2134 2060 2279 2277 2112 2052 2118 2101 2025 1888 1810 1966
2092 1485 1677 1812 1199 1181 729 511 445 242 0 0 0 0 0 0 0 43 50 82 272 480 872 1374 1007 1143 1804 1831 2048 2071 1867 1721 2264 1967 1842 2063 2240 2082 1888 1912 1968 1987 1982
1333 1495 1654 1681 1523 1110 639 581 11 0 0 6 0 0 0 0 0 45 14 4 15 352 783 785 727 1242 1157 1249 1607 1559 1666 1550 1649 1930 2045 1992 1969 2021 2025 1935 1965 1984 1927
1615 1478 1520 1376 924 882 676 37 0 0 0 3 0 0 0 8 12 22 0 0 0 134 120 25 199 579 767 564 530 787 874 1098 1230 1175 1290 1299 1716 1692 1550 1348 1597 1684 1825
1849 1884 1875 1130 1116 807 533 27 0 0 0 0 0 0 0 4 39 110 2 0 0 0 0 0 0 17 617 126 0 0 2 18 69 104 156 233 384 580 836 965 1036 1231 1402
1799 1640 1455 920 1124 751 300 1 0 1 0 0 0 0 0 0 6 5 8 0 0 0 0 0 0 0 67 1 0 0 0 0 0 0 0 0 0 0 14 133 404 714 1222
1642 1448 1658 1265 986 771 212 2 0 18 21 33 18 48 0 0 0 0 1 5 19 0 0 0 0 0 0 0 0 0 0 0 0 0 0 0 0 0 0 0 0 4 273
1208 1548 1359 1310 870 79 7 19 40 0 41 26 2 0 0 0 0 0 0 0 0 0 6 0 0 0 0 0 0 0 0 0 0 0 0 0 0 0 0 0 0 0 0
539 1296 940 1292 615 326 70 45 13 9 7 23 125 7 11 0 0 0 0 0 0 0 1 2 0 0 0 0 0 0 0 0 0 0 0 0 0 0 0 0 0 0 0
515 793 1404 1243 858 486 153 192 36 128 67 0 4 0 16 0 0 0 0 0 0 0 0 10 12 7 8 0 0 6 0 0 0 0 0 0 0 0 0 0 0 0 0
701 635 1484 1361 911 434 474 287 94 30 63 13 0 37 0 1 0 0 0 0 0 0 0 0 4 8 25 2 1 0 0 0 0 0 0 0 0 0 0 0 0 0 0
1373 737 1492 1364 939 586 484 242 151 247 160 181 24 4 10 15 9 0 9 0 0 0 0 0 0 5 30 27 165 2 1 25 30 11 2 0 0 0 0 0 0 0 0
1164 1042 1440 1297 991 835 526 392 181 206 361 45 174 10 104 1 0 0 10 0 0 0 0 0 0 11 61 50 65 25 21 0 2 22 10 5 0 0 0 0 0 0 0
1327 1238 1159 1214 971 837 560 525 315 287 150 276 92 19 0 0 0 0 0 11 14 0 0 0 1 16 19 0 4 13 71 73 0 1 25 23 12 0 0 0 0 0 0
1702 1225 1126 1043 1046 922 718 519 338 165 347 212 230 102 37 25 79 91 146 39 57 41 33 9 0 4 13 8 0 21 16 35 29 21 0 0 0 0 0 0 0 0 0
2074 1250 1134 1005 940 918 687 658 456 305 236 224 252 246 132 87 65 106 5 17 34 33 47 31 4 4 0 0 2 0 0 0 0 0 0 0 0 0 0 0 0 0 0
2514 1500 1105 1115 1004 864 652 591 524 442 395 308 262 321 227 282 303 185 54 12 15 4 0 0 0 0 0 0 0 0 0 0 0 0 0 0 0 0 0 0 0 0 0
2885 2036 1339 1175 932 954 733 681 564 596 482 421 302 292 244 529 650 522 260 101 15 0 0 0 0 0 0 0 6 1 0 0 0 0 0 0 0 0 0 0 0 0 0
3127 2370 1627 1214 896 740 459 443 501 527 558 458 409 314 459 316 63 1 0 2 0 16 8 0 0 0 0 0 6 7 5 0 0 0 0 0 0 0 0 0 0 0 0
2822 2214 1548 1120 687 508 195 31 119 403 371 338 466 441 425 381 101 0 2 0 4 6 5 0 0 0 0 0 1 20 1 0 0 0 0 0 0 0 0 0 0 0 0
2595 1779 1128 824 626 485 416 168 0 87 190 205 378 572 565 312 141 138 20 5 6 8 35 32 0 0 0 16 25 0 0 0 0 0 0 0 0 0 0 0 0 0 0
2091 1212 979 772 612 707 499 147 0 22 25 22 37 209 455 328 421 85 13 0 4 2 2 17 7 0 0 0 0 0 0 0 0 0 0 0 0 0 0 0 0 0 0

GFSMA_con_sbcape_036.txt.gz
CAPE
917 821 797 841 997 1005 628 221 497 728 1288 1163 1048 846 214 213 0 673 355 1891 2378 2897 2399 2206 1665 1498 1350 1484 1274 1032 1208 1209 1279 1324 1184 1003 713 639 672 657 714 684 823
704 1126 1023 967 580 1085 726 946 1049 1125 1259 1022 998 1184 454 431 259 609 748 1059 2717 2852 2794 2800 2514 2008 1790 1888 1740 1424 1083 820 1158 1515 1692 1760 1382 814 1134 1295 1032 733 766
537 876 762 887 1066 901 1084 815 802 453 135 4 0 386 731 594 752 680 872 803 1473 2474 2244 2503 2636 2840 2411 2056 1862 2073 2146 2029 1489 1177 1656 1500 1377 1363 1383 1431 1146 1002 1412
847 822 751 758 1215 634 398 535 606 123 0 0 0 0 0 160 192 610 1018 796 874 1251 1930 1987 1958 2233 2470 2109 1729 1435 1699 1778 1921 1928 1700 1339 1051 1114 1642 1813 1753 1582 1463
1083 945 935 932 1261 1045 612 551 457 0 0 0 0 0 0 0 1 1 15 19 13 907 937 1752 1879 1929 1629 1188 1724 1760 1777 1563 1705 2221 2181 1820 1715 1795 2012 2055 2036 1798 1797
1551 1151 1156 1385 956 1160 653 338 102 1 0 0 0 0 0 0 0 12 86 440 578 753 900 1103 1002 951 1743 1672 2129 1991 1782 1945 2166 2134 1768 1949 2227 2057 1998 1815 1672 1919 1895
1386 1283 809 1302 820 573 471 161 0 0 0 0 0 0 0 0 0 11 0 34 362 431 440 404 779 927 1467 1549 1565 1478 1669 1674 1747 1823 1894 1632 1361 1345 1574 1722 1723 1787 1916
1034 1263 836 977 829 916 354 0 0 0 0 0 0 0 0 0 6 0 0 0 132 293 263 299 302 659 428 459 883 1251 1346 1466 1461 1338 1266 1173 1354 1443 1392 1370 1436 1582 1720
1262 1095 922 791 571 142 180 0 0 0 0 0 0 0 0 0 3 4 0 0 4 0 0 0 129 454 104 29 0 27 117 182 155 116 101 112 159 298 595 862 1004 1083 1102
1285 1353 1149 758 542 363 11 0 0 0 0 0 0 0 0 0 0 0 0 0 0 0 0 0 0 470 13 0 0 0 0 0 0 0 0 0 0 0 0 7 120 487 754
1117 1274 948 403 591 231 9 0 0 0 0 0 0 0 0 0 0 0 0 0 0 0 0 0 0 58 0 0 0 0 0 0 0 0 0 0 0 0 0 0 0 0 0
953 1144 1112 414 257 97 1 0 0 0 0 0 0 0 0 0 0 0 0 0 0 0 0 0 0 0 0 0 0 0 0 0 0 0 0 0 0 0 0 0 0 0 0
672 946 938 662 195 0 0 0 0 0 0 0 0 0 0 0 0 0 0 0 0 0 0 0 0 0 0 0 0 1 10 0 0 0 0 0 0 0 0 0 0 0 0
608 863 577 564 34 0 0 0 0 0 0 0 0 0 0 0 0 0 0 0 0 0 0 0 0 0 0 0 0 32 0 0 0 0 0 0 0 0 0 0 0 0 0
105 615 499 626 132 38 0 0 0 0 2 0 0 0 0 0 0 0 0 0 0 0 0 0 0 0 0 0 0 10 0 0 1 0 0 0 0 0 0 5 1 0 0
362 274 519 559 337 109 22 4 0 0 0 0 0 0 0 0 0 0 0 0 0 0 0 0 0 0 0 0 0 3 0 0 0 0 0 0 0 0 3 0 3 5 1
439 226 770 750 554 201 113 24 2 3 0 0 1 0 0 0 0 0 0 0 0 0 0 0 0 0 2 7 5 26 0 0 0 0 8 10 0 0 0 1 0 0 3
828 514 517 993 765 447 156 124 11 55 90 3 0 2 0 0 0 0 0 0 0 0 0 0 0 0 0 0 0 0 0 44 0 0 0 1 0 0 0 0 0 0 0
947 738 682 921 846 673 322 184 77 40 6 73 25 1 0 0 0 0 0 0 0 0 0 0 0 0 0 0 0 0 0 0 0 0 0 0 0 0 0 0 0 0 0
1367 988 832 941 852 677 524 288 182 64 55 39 28 16 3 0 0 0 7 0 2 5 0 0 0 0 0 0 0 0 0 0 0 0 0 0 0 0 0 0 0 0 0
1921 1284 956 732 696 654 592 409 307 185 90 53 47 116 140 18 0 4 7 0 0 2 0 0 0 0 0 0 0 0 1 2 2 0 0 0 0 0 0 0 0 0 0
2155 1392 1034 779 582 772 709 430 488 380 225 144 109 82 205 213 121 69 49 15 12 8 0 0 0 0 0 0 0 0 0 0 0 0 0 0 0 0 0 0 0 0 0
2455 1524 996 874 813 850 577 320 337 459 336 312 168 65 162 222 226 207 206 4 1 0 0 0 0 0 0 0 0 0 0 0 0 0 0 0 0 0 0 0 0 0 0
2368 1909 1173 980 895 899 439 98 172 565 325 306 251 170 185 324 87 34 8 3 1 0 0 0 0 0 0 0 0 0 0 0 0 0 0 0 0 0 0 0 0 0 0
2514 2350 1467 1208 1102 990 170 19 68 512 203 201 178 219 273 161 76 0 0 0 0 0 6 9 0 1 0 3 12 0 1 0 0 0 0 0 0 0 0 0 0 0 0
2651 2111 1568 1375 1130 1054 105 0 0 3 122 248 21 212 345 320 67 0 21 21 43 19 1 0 2 0 0 0 0 0 0 0 0 0 0 0 0 0 0 0 0 0 0